Location: Black Creek
(40.9000°S, 175.5500°E)
Time: 07:33:21
(UTC+00:00)

Explorer 7 - Pass Details

Date: 14 November 2024
Orbit: 455 x 598 km, 50.3° (Epoch: 07 December)

Event Time Altitude Azimuth Distance (km) Brightness Sun altitude
Rises 08:41:08 0° 236° (SW) 2,601 12.2 -14.6°
Reaches altitude 10° 08:43:24 10° 232° (SW) 1,691 10.7 -14.9°
Maximum altitude 08:47:11 62° 150° (SSE) 542 6.8 -15.4°
Enters shadow 08:48:51 29° 78° (ENE) 889 7.4 -15.7°
